Regional Weather Roundup
Issued by NWS

Home | Current Version | Previous Version | Text Only | Print | Product List | Glossary On
Versions: 1 2 3 4 5 6 7 8 9 10 11 12 13 14 15 16 17 18 19 20 21 22 23 24 25 26 27
000
ASCA42 TJSJ 202110
RWRPR
PUERTO RICO/U.S. VIRGIN ISLANDS HOURLY WEATHER ROUNDUP
NATIONAL WEATHER SERVICE SAN JUAN PR
500 PM AST SUN AUG 20 2017

PRZ001>002-007>008-010-202200-
PUERTO RICO

CITY           SKY/WX    TMP DP  RH WIND       PRES   REMARKS
SAN JUAN LMM   PTSUNNY   81  77  89 S3        29.95R
AGUADILLA      CLOUDY    77  73  88 CALM      29.96S
CEIBA          LGT RAIN  81  79  94 CALM      29.98F
$$

VIZ001>002-202200-
U.S. VIRGIN ISLANDS

CITY           SKY/WX    TMP DP  RH WIND       PRES   REMARKS
CHARLOTTE AMA  LGT RAIN  79  75  89 E9        29.96R
CHRISTIANSTED  PTSUNNY   86  79  79 E12       29.95S HX  99
$$

HOURLY WEATHER ROUNDUP FOR THE NEWS MEDIA

CITY           SKY/WX    TMP DP  RH WIND       PRES   REMARKS
ORLANDO        LGT RAIN  83  76  79 E12       30.04R HX  91
NEW YORK       MOSUNNY   84  59  42 N9        30.06S
NEWARK         PTSUNNY   85  57  38 W10G20    30.06S
CHICAGO        CLOUDY    86  66  51 SW9       30.00S
HARTFORD       SUNNY     83  59  44 VRB3      29.98R
BOSTON         MOSUNNY   83  54  36 W15G21    29.99R
DALLAS         MOSUNNY   98  69  38 SE14      29.95F HX 104
PHILADELPHIA   MOSUNNY   85  58  39 VRB6      30.09S
LOS ANGELES    MOSUNNY   75  61  61 W15       29.92F
WASHINGTON DC  SUNNY     85  65  51 VRB3      30.11F



USA.gov is the U.S. government's official web portal to all federal, state and local government web resources and services.